OPS 9344 (IDSCS 22)

导读

OPS 9344,又称IDSCS 22,是美国于1968年6月13日8点发射的军事通信卫星,属于初始国防卫星通信系统(IDSCS)系列,是美国早期战略通信卫星网络的重要组成部分。该系列卫星部署在地球同步轨道,为美军提供全球远程军事通信支持,是冷战时期美国太空军事通信基础设施建设的关键节点,推动了美国军用卫星通信技术的早期发展,在全球军事指挥调度中发挥过重要作用。

基本信息
目录编号:
3287
目录名称:
OPS 9344 (IDSCS 22)
国际标识:
1968-050D
轨道中心:
EARTH
卫星名称:
OPS 9344 (IDSCS 22)
卫星全名:
--
卫星状态:
在轨 (已飞行21215 天)
发射日期:
1968-06-13 UTC
国别 :
美国 (US)
星等 :
--
轨道信息
数据来源 国际轨道数据
星历时间: 2026-07-13T17:56:39+0800
20小时前
查看轨道信息
半长轴: 40217.9km
偏心率: 0.0025688
轨道倾角: 7.238°
近地点辐角 147.208°
升交点赤经 52.014°
平近点角 203.509°
近地点: 33736.451km
远地点: 33943.075km
周期: 1337.793分钟
每日圈数: 1.0764
详细信息
使用方式:
暂无
2D轨道图
3D轨道图
轨道高度分析图
轨道倾角分析图
轨道综合分析图
查看轨道综合分析图